Regional Weather Roundup
Issued by NWS State College, PA

Home | Current Version | Previous Version | Text Only | Print | Product List | Glossary On
Versions: 1 2 3 4 5 6 7 8 9 10 11 12 13 14 15 16 17 18 19 20 21 22 23 24 25 26 27 28 29 30 31 32 33 34 35 36 37 38 39 40 41 42 43 44 45 46 47 48 49 50
000
ASUS41 KCTP 231603
RWRCTP

REGIONAL WEATHER ROUNDUP
NATIONAL WEATHER SERVICE STATE COLLEGE PA
1200 PM EDT TUE MAY 23 2017

Note: "fair" indicates few or no clouds below 12,000 feet with no
significant weather and/or obstructions to visibility.

* = STATION THAT DOES NOT REPORT PRECIPITATION /E.G. RAIN...SNOW...ETC/
    THUNDER OR FOG.

PAZ002>004-007>009-013>016-020>023-029>032-231700-
WESTERN PENNSYLVANIA

CITY           SKY/WX    TMP DP  RH WIND       PRES   REMARKS
ERIE           SUNNY     70  48  45 VRB3      29.89F
MEADVILLE      SUNNY     67  48  50 VRB7      29.91F
FRANKLIN*      SUNNY     66  46  48 E9        29.92F
NEW CASTLE     FAIR      69  46  43 SE10G20   29.91F
BEAVER COUNTY  SUNNY     66  45  45 E7G16     29.90F
BUTLER*        MOSUNNY   66  48  52 E12       29.91F
PITTSBURGH INT PTSUNNY   68  45  43 E15G22    29.89F
PITTSBURGH     CLOUDY    66  43  43 E12G20    29.89F
INDIANA*       NOT AVBL
LATROBE        PTSUNNY   64  45  48 SE17      29.92F
WASHINGTON CO* MOSUNNY   64  46  52 SE12G18   29.91S
$$

PAZ004>006-010>012-017>019-024>028-033>037-041-042-045-046-049>053-231700-
CENTRAL PENNSYLVANIA

CITY           SKY/WX    TMP DP  RH WIND       PRES   REMARKS
BRADFORD       NOT AVBL
DUBOIS         CLOUDY    64  44  48 SE8       29.92F
CLEARFIELD     CLOUDY    64  48  56 VRB6      29.94F
JOHNSTOWN      CLOUDY    59  43  55 SE9       29.94F
ALTOONA        CLOUDY    62  45  53 E10       29.96F
STATE COLLEGE  SUNNY     61  48  63 CALM      29.95F
WILLIAMSPORT   CLOUDY    61  50  67 SE3       29.94F
SELINSGROVE    CLOUDY    63  50  62 CALM      29.95F
FT INDIANTOWN  CLOUDY    63  51  64 E5        29.95F
CAPITAL CITY   CLOUDY    65  47  52 E6        29.95F
HARRISBURG     CLOUDY    65  48  54 E6        29.94F
YORK           CLOUDY    64  50  60 E8        29.95F
$$

PAZ038>040-043-044-047-048-054-055-060>062-067>071-231700-
EASTERN PENNSYLVANIA

CITY           SKY/WX    TMP DP  RH WIND       PRES   REMARKS
SCRANTON       CLOUDY    63  48  58 CALM      29.96F
MOUNT POCONO   CLOUDY    61  41  47 N8        29.97S
ALLENTOWN      MOSUNNY   66  49  54 CALM      29.96F
QUAKERTOWN*    MOSUNNY   64  48  55 CALM      29.96F
READING        CLOUDY    66  50  56 NE6       29.94F
LANCASTER      CLOUDY    65  51  60 E6        29.96S
COATESVILLE    CLOUDY    61  48  63 NE3       29.96F
POTTSTOWN      MOSUNNY   64  51  62 VRB6      29.96F
BLUE BELL      CLOUDY    63  54  72 E3        29.96F
DOYLESTOWN     CLOUDY    63  54  72 CALM      29.94F
WILLOW GROVE   NOT AVBL
NORTH PHILA    CLOUDY    65  54  67 E6        29.96F
PHILADELPHIA   CLOUDY    66  56  70 E6        29.94F
$$




USA.gov is the U.S. government's official web portal to all federal, state and local government web resources and services.